Retour au catalogue

STARLINK-36306

ActifCommunicationsSSO
NORAD 68160·PAYLOAD·🇺🇸 United States

Lancé Mar 13, 2026 depuis Vandenberg Space Force Base

Loading…

Prochains Passages (prochaines 24 heures)

TLE

FraisSource: CelesTrak SupGP

Époque: Sep 14, 2026, 22:36 UTC

1 68160C 26049U   26257.94215278  .00068723  00000+0  21347-2 0  2573
2 68160  97.2838 277.9528 0001857  86.6061  57.5133 15.33383051    15

Suivez STARLINK-36306 en temps réel avec AllMySat

Download on the App Store